Marianna, FL

1:09 AM CDT on September 22, 2019 (GMT -0500)
Marianna Municipal

Weather History for KMAI - August, 2019

Change the Weather History Date:

Sunday, August 18, 2019

  Actual Average Record
Temperature  
Mean Temperature 83 °F 82 °F  
Max Temperature 90 °F 91 °F 99 °F (2011)
Min Temperature 76 °F 72 °F 70 °F (2013)
Degree Days  
Heating Degree Days 0    
Month to date heating degree days 0  
Since 1 June heating degree days 0  
Since 1 July heating degree days 0  
Cooling Degree Days 18    
Month to date cooling degree days 351  
Year to date cooling degree days 2129  
Since 1 June cooling degree days 1450  
Growing Degree Days 32 (Base 50)    
Moisture  
Dew Point 77 °F    
Average Humidity 90    
Maximum Humidity 100    
Minimum Humidity 70    
Precipitation  
Precipitation 0.15 in 0.17 in 1.25 in (2013)
Month to date precipitation 1.58 3.55  
Year to date precipitation 25.91 36.45  
Sea Level Pressure  
Sea Level Pressure 29.98 in    
Wind  
Wind Speed 7 mph (SSE)    
Max Wind Speed 20 mph    
Max Gust Speed 23 mph    
Visibility 9 miles    
Events Rain , Thunderstorm    
T = Trace of Precipitation, MM = Missing Value Source: NWS Daily Summary

Daily Weather History Graph

Daily Weather History Graph

Search for Another Location

Airport or City:

Astronomy

Aug. 18, 2019 Rise Set
Actual Time 6:08 AM CDT 7:20 PM CDT
Civil Twilight 5:43 AM CDT 7:45 PM CDT
Nautical Twilight 5:13 AM CDT 8:15 PM CDT
Astronomical Twilight 4:42 AM CDT 8:46 PM CDT
Moon 9:25 PM CDT (8/18) 8:44 AM CDT (8/18)
Length of Visible Light 14h 01m
Length of Day
13h 11m
Waning Gibbous, 91% of the Moon is Illuminated
Aug 18
Waning Gibbous
Aug 23
Last Quarter
Aug 30
New
Sep 5
First Quarter
Sep 13
Full

Hourly Weather History & Observations

Time (CDT) Temp. Heat Index Dew Point Humidity Pressure Visibility Wind Dir Wind Speed Gust Speed Precip Events Conditions
12:53 AM 75.9 °F - 75.0 °F 97% 29.98 in 10.0 mi SSE 3.5 mph - N/A   Partly Cloudy
1:53 AM 75.9 °F - 75.0 °F 97% 29.96 in 10.0 mi SE 3.5 mph - N/A   Partly Cloudy
2:53 AM 75.9 °F - 75.0 °F 97% 29.95 in 10.0 mi East 4.6 mph - N/A   Clear
3:53 AM 75.9 °F - 75.0 °F 97% 29.94 in 10.0 mi ESE 4.6 mph - N/A   Clear
4:53 AM 75.9 °F - 75.0 °F 97% 29.94 in 10.0 mi East 5.8 mph - N/A   Clear
5:53 AM 75.9 °F - 75.0 °F 97% 29.96 in 10.0 mi East 4.6 mph - N/A   Scattered Clouds
6:08 AM 75.9 °F - 75.0 °F 97% 29.96 in 10.0 mi Variable 4.6 mph - N/A   Mostly Cloudy
6:44 AM 77.0 °F - 75.9 °F 96% 29.97 in 10.0 mi Variable 4.6 mph - N/A   Mostly Cloudy
6:53 AM 77.0 °F - 75.9 °F 96% 29.96 in 10.0 mi SE 4.6 mph - N/A   Mostly Cloudy
7:10 AM 78.1 °F - 75.9 °F 93% 29.97 in 10.0 mi Variable 4.6 mph - N/A   Overcast
7:45 AM 78.1 °F - 77.0 °F 96% 29.98 in 10.0 mi SSE 5.8 mph - N/A   Overcast
7:53 AM 79.0 °F - 77.0 °F 94% 29.98 in 10.0 mi SSE 6.9 mph - N/A   Overcast
8:53 AM 82.0 °F 90.2 °F 77.0 °F 85% 29.98 in 10.0 mi SSE 9.2 mph - N/A   Overcast
9:34 AM 82.9 °F 91.8 °F 77.0 °F 82% 29.99 in 10.0 mi South 8.1 mph - N/A   Overcast
9:53 AM 84.0 °F 93.7 °F 77.0 °F 79% 29.99 in 10.0 mi South 5.8 mph - N/A   Overcast
10:53 AM 87.1 °F 98.8 °F 77.0 °F 72% 29.99 in 10.0 mi South 10.4 mph - N/A   Overcast
11:48 AM 86.0 °F 96.9 °F 77.0 °F 74% 29.98 in 10.0 mi Variable 3.5 mph - N/A Thunderstorm Overcast
11:53 AM 86.0 °F 96.9 °F 77.0 °F 74% 29.97 in 10.0 mi NNE 8.1 mph - N/A Thunderstorm Overcast
12:16 PM 82.0 °F 92.8 °F 80.1 °F 94% 30.00 in 1.8 mi NW 11.5 mph 19.6 mph 0.00 in Rain , Thunderstorm Heavy Thunderstorms and Rain
12:26 PM 79.0 °F - 78.1 °F 97% 30.01 in 0.8 mi NNW 9.2 mph - N/A Rain , Thunderstorm Heavy Thunderstorms and Rain
12:36 PM 77.0 °F - 77.0 °F 100% 29.99 in 1.5 mi NNE 5.8 mph - N/A Rain , Thunderstorm Heavy Thunderstorms and Rain
12:41 PM 78.1 °F - 77.0 °F 96% 29.99 in 4.0 mi North 5.8 mph - N/A Rain , Thunderstorm Rain
12:53 PM 78.1 °F - 78.1 °F 100% 29.98 in 5.0 mi Calm Calm - N/A Rain , Thunderstorm Rain
1:07 PM 80.1 °F 86.7 °F 79.0 °F 96% 29.99 in 10.0 mi North 4.6 mph - N/A Rain Light Rain
1:53 PM 86.0 °F 100.8 °F 80.1 °F 82% 29.96 in 10.0 mi ENE 9.2 mph - N/A   Partly Cloudy
2:53 PM 90.0 °F 105.8 °F 79.0 °F 70% 29.96 in 10.0 mi NE 13.8 mph - N/A   Scattered Clouds
3:53 PM 87.1 °F 99.8 °F 78.1 °F 74% 29.95 in 10.0 mi East 10.4 mph - N/A   Partly Cloudy
4:53 PM 84.9 °F 96.6 °F 78.1 °F 80% 29.94 in 10.0 mi South 9.2 mph - N/A   Mostly Cloudy
5:17 PM 84.0 °F 92.6 °F 75.9 °F 76% 29.95 in 10.0 mi SW 12.7 mph - N/A   Scattered Clouds
5:53 PM 82.9 °F 90.2 °F 75.0 °F 77% 29.96 in 10.0 mi SW 12.7 mph - N/A   Scattered Clouds
6:53 PM 81.0 °F 87.3 °F 75.9 °F 85% 29.97 in 10.0 mi SSW 6.9 mph - N/A   Scattered Clouds
7:53 PM 79.0 °F - 75.9 °F 90% 29.98 in 10.0 mi Variable 3.5 mph - N/A   Mostly Cloudy
8:53 PM 78.1 °F - 77.0 °F 96% 29.98 in 10.0 mi South 5.8 mph - N/A   Mostly Cloudy
9:06 PM 78.1 °F - 77.0 °F 96% 29.99 in 10.0 mi South 6.9 mph - N/A   Overcast
9:35 PM 78.1 °F - 77.0 °F 96% 30.00 in 10.0 mi SSW 8.1 mph - N/A   Mostly Cloudy
9:42 PM 78.1 °F - 77.0 °F 96% 30.01 in 10.0 mi SSW 6.9 mph - N/A   Mostly Cloudy
9:53 PM 78.1 °F - 77.0 °F 96% 30.00 in 10.0 mi SSW 10.4 mph - N/A   Mostly Cloudy
10:18 PM 78.1 °F - 77.0 °F 96% 30.01 in 10.0 mi SW 8.1 mph - N/A   Overcast
10:53 PM 78.1 °F - 75.9 °F 93% 30.00 in 10.0 mi SW 9.2 mph - N/A   Scattered Clouds
11:53 PM 77.0 °F - 75.9 °F 96% 30.00 in 10.0 mi WSW 9.2 mph - N/A   Clear